EW4061 Weather Reports


time (UTC)temp
F
wind
direction
speed
knots
gust
knots
rain 1hr
in
rain 24hr
in
rain mn
in
humidity
%
barometer
mb
20260505083606 62 24 0.0 0.9 0.00 0.00 0.00 54 1016.1
20260505082705 63 36 0.0 3.5 0.00 0.00 0.00 52 1015.8
20260505081827 63 337 0.9 4.3 0.00 0.00 0.00 51 1015.7
20260505080906 64 42 0.9 2.6 0.00 0.00 0.00 50 1015.6
20260505080006 64 9 0.9 4.3 0.00 0.00 0.00 49 1015.7
20260505075405 65 242 1.7 4.3 0.00 0.00 0.00 49 1015.6
20260505074505 65 298 2.6 7.8 0.00 0.00 0.00 48 1015.6
20260505073627 65 276 2.6 9.6 0.00 0.00 0.00 48 1015.5
20260505072706 64 297 1.7 6.1 0.00 0.00 0.00 49 1015.4
20260505071805 64 175 0.9 5.2 0.00 0.00 0.00 49 1015.3
20260505070905 64 71 0.9 4.3 0.00 0.00 0.00 49 1015.2
20260505070005 64 36 0.9 6.1 0.00 0.00 0.00 49 1015.2
20260505065405 64 87 1.7 6.1 0.00 0.00 0.00 49 1015.2
20260505064505 64 76 0.9 4.3 0.00 0.00 0.00 49 1015.2
20260505063627 64 103 1.7 7.0 0.00 0.00 0.00 48 1015.1
20260505062726 65 177 1.7 7.0 0.00 0.00 0.00 48 1015.1
20260505061805 66 173 1.7 7.8 0.00 0.00 0.00 47 1015.2
20260505060905 66 211 1.7 13.0 0.00 0.00 0.00 45 1015.2
20260505060005 65 188 1.7 8.7 0.00 0.00 0.00 48 1015.2
20260505055405 65 169 1.7 13.0 0.00 0.00 0.00 46 1015.2
20260505054505 66 204 2.6 13.0 0.00 0.00 0.00 45 1015.3
20260505053605 66 212 2.6 10.4 0.00 0.00 0.00 45 1015.2
20260505052705 66 211 1.7 9.6 0.00 0.00 0.00 44 1015.2
20260505051805 66 172 2.6 11.3 0.00 0.00 0.00 44 1015.2
20260505050905 66 186 2.6 9.6 0.00 0.00 0.00 44 1015.2
20260505040905 66 248 1.7 9.6 0.00 0.00 0.00 45 1015.1
20260505040005 66 249 2.6 8.7 0.00 0.00 0.00 45 1015.2
20260505035404 66 216 1.7 7.8 0.00 0.00 0.00 45 1015.1
20260505034526 66 169 1.7 6.1 0.00 0.00 0.00 46 1015.2
20260505033604 66 203 2.6 8.7 0.00 0.00 0.00 46 1015.3
20260505032705 66 210 1.7 8.7 0.00 0.00 0.00 46 1015.3
20260505031804 66 209 1.7 7.8 0.00 0.00 0.00 47 1015.3
20260505030925 66 207 1.7 8.7 0.00 0.00 0.00 48 1015.3
20260505030025 66 181 1.7 7.8 0.00 0.00 0.00 50 1015.3
20260505025404 66 181 1.7 7.0 0.00 0.00 0.00 50 1015.5
20260505024505 66 229 1.7 6.1 0.00 0.00 0.00 50 1015.5
20260505023604 66 181 0.9 4.3 0.00 0.00 0.00 52 1015.5
20260505022704 66 213 0.9 6.1 0.00 0.00 0.00 51 1015.6
20260505021804 66 235 1.7 8.7 0.00 0.00 0.00 52 1015.5
20260505020904 66 227 1.7 8.7 0.00 0.00 0.00 51 1015.6
20260505020004 66 213 0.9 6.1 0.00 0.00 0.00 52 1015.7
20260505015404 66 179 0.9 6.1 0.00 0.00 0.00 53 1015.6
20260505014525 66 189 0.9 6.1 0.00 0.00 0.00 53 1015.6
20260505013604 66 131 0.9 4.3 0.00 0.00 0.00 53 1015.4
20260505012704 66 168 0.9 3.5 0.00 0.00 0.00 53 1015.4
20260505011804 67 172 0.9 3.5 0.00 0.00 0.00 52 1015.3
20260505010904 67 183 0.9 4.3 0.00 0.00 0.00 52 1015.2
20260505010004 67 195 0.9 3.5 0.00 0.00 0.00 52 1015.0
20260505005404 67 194 0.9 3.5 0.00 0.00 0.00 52 1015.0
20260505004504 68 205 0.9 2.6 0.00 0.00 0.00 51 1014.8
20260505003604 68 221 0.0 1.7 0.00 0.00 0.00 51 1014.7
20260505002703 68 246 0.0 1.7 0.00 0.00 0.00 49 1014.6
20260505001803 69 235 0.0 1.7 0.00 0.00 0.00 47 1014.5
20260505000903 70 347 0.0 0.9 0.00 0.00 0.00 44 1014.5
20260505000025 71 295 0.0 2.6 0.00 0.00 0.00 43 1014.4
20260504235403 71 315 0.0 2.6 0.00 0.00 0.00 42 1014.4
20260504234503 72 325 0.9 2.6 0.00 0.00 0.00 41 1014.3
20260504233603 72 318 0.0 2.6 0.00 0.00 0.00 41 1014.2
20260504232724 73 272 0.9 7.0 0.00 0.00 0.00 41 1014.1
20260504231803 73 328 1.7 4.3 0.00 0.00 0.00 40 1014.2
20260504230903 73 345 1.7 3.5 0.00 0.00 0.00 39 1014.1
20260504230003 74 292 0.9 4.3 0.00 0.00 0.00 38 1014.1
20260504225403 74 299 2.6 7.0 0.00 0.00 0.00 38 1014.2
20260504224524 75 312 2.6 7.8 0.00 0.00 0.00 37 1014.2
20260504223624 76 311 1.7 7.8 0.00 0.00 0.00 36 1014.3
20260504222725 77 245 0.9 6.1 0.00 0.00 0.00 38 1014.2
20260504221825 77 227 0.9 4.3 0.00 0.00 0.00 38 1014.2
20260504220924 77 300 1.7 8.7 0.00 0.00 0.00 37 1014.3
20260504220024 76 266 2.6 7.8 0.00 0.00 0.00 38 1014.4
20260504215424 77 276 2.6 9.6 0.00 0.00 0.00 38 1014.5
20260504214524 77 207 1.7 9.6 0.00 0.00 0.00 37 1014.6
20260504213645 77 218 1.7 8.7 0.00 0.00 0.00 37 1014.5
20260504212724 77 258 2.6 8.7 0.00 0.00 0.00 41 1014.6
20260504211824 77 163 1.7 6.1 0.00 0.00 0.00 40 1014.6
20260504210945 77 155 1.7 7.0 0.00 0.00 0.00 40 1014.5
20260504210024 77 242 1.7 6.1 0.00 0.00 0.00 39 1014.4
20260504205424 77 195 1.7 6.1 0.00 0.00 0.00 43 1014.4
20260504204545 76 187 1.7 5.2 0.00 0.00 0.00 41 1014.5
20260504203624 74 265 1.7 5.2 0.00 0.00 0.00 43 1014.5
20260504202723 74 175 0.9 3.5 0.00 0.00 0.00 48 1014.5
20260504201823 73 289 2.6 7.8 0.00 0.00 0.00 45 1014.7
20260504200924 74 290 0.9 2.6 0.00 0.00 0.00 49 1015.0
20260504200023 74 248 1.7 5.2 0.00 0.00 0.00 43 1014.9
20260504195424 74 164 1.7 5.2 0.00 0.00 0.00 45 1015.0
20260504194523 74 239 0.0 2.6 0.00 0.00 0.00 47 1015.1
20260504193644 73 163 0.9 5.2 0.00 0.00 0.00 48 1015.2
20260504192724 73 137 0.9 5.2 0.00 0.00 0.00 48 1015.4
20260504191823 72 178 0.9 4.3 0.00 0.00 0.00 45 1015.5
20260504190923 72 175 1.7 5.2 0.00 0.00 0.00 46 1015.5
20260504190024 72 168 1.7 4.3 0.00 0.00 0.00 46 1015.6
20260504185423 72 207 1.7 4.3 0.00 0.00 0.00 48 1015.7
20260504184544 72 184 1.7 3.5 0.00 0.00 0.00 46 1015.7
20260504183623 70 227 0.9 6.1 0.00 0.00 0.00 49 1016.1
20260504182724 70 273 0.9 6.1 0.00 0.00 0.00 46 1016.3
20260504181823 70 275 0.9 6.1 0.00 0.00 0.00 46 1016.5
20260504180944 70 234 0.9 4.3 0.00 0.00 0.00 47 1016.5
20260504180023 69 210 1.7 7.0 0.00 0.00 0.00 48 1016.6
20260504175423 70 240 1.7 7.0 0.00 0.00 0.00 47 1016.7
20260504174523 70 357 0.9 2.6 0.00 0.00 0.00 47 1016.6
20260504173623 70 289 1.7 5.2 0.00 0.00 0.00 47 1016.7
20260504172723 71 265 1.7 7.0 0.00 0.00 0.00 43 1016.7
20260504171822 71 251 1.7 6.1 0.00 0.00 0.00 42 1016.7
20260504170923 72 223 1.7 5.2 0.00 0.00 0.00 42 1016.7
20260504150922 66 22 1.7 8.7 0.00 0.00 0.00 48 1018.2
20260504140923 65 181 1.7 7.0 0.00 0.00 0.00 45 1018.4